Back to catalog

STARLINK-37788

AliveCommunicationsSSO
NORAD 69338·PAYLOAD·🇺🇸 United States

Launched Jun 3, 2026 from Vandenberg Space Force Base

Loading…

Next Passes (next 24 hours)

TLE

FreshSource: CelesTrak SupGP

Epoch: Sep 14, 2026, 15:34 UTC

1 69338C 26122K   26257.64909722 -.00034336  00000+0 -10655-2 0  2579
2 69338  97.2826 286.3306 0001229 105.3787 172.2074 15.33468197    19

Track STARLINK-37788 in real time with AllMySat

Download on the App Store